www.pogodaiklimat.ru

Погода и климат >> Архив погоды >> Канада >> Baker Lake Climate


ПОГОДА в Baker Lake Climate

  • Прогноз погоды в Baker Lake Climate
  • Монитор погоды в Baker Lake Climate
  • Климат города

АРХИВ ПОГОДЫ в Baker Lake Climate

Время (UTC), дата Ветер
(напр.,м/с)
 
Видим.   Явления Облачность Т
(С)
Тd
(С)
f
(%)
Тe
(С)
Тes
(С)
Комфортность P
(гПа)
Po
(гПа)
Тmin
(С)
Tmax
(С)
R
(мм)
R24
(мм)
S
(см)
18 19.06 СЗ 7 н/о н/о +10.1 +5.5 73 +6 +6 1009.8 1003.4 +7.5 +14.5
21 19.06 СЗ 8 н/о н/о +12.5 +3.1 53 +10 +10 1010.8 1004.4
00 20.06 СЗ 9 н/о н/о +11.0 +1.5 52 +8 +8 1011.9 1005.5 +7.5 +14.5
03 20.06 СЗ 8 н/о н/о +6.4 +0.6 66 +1 +1 1013.4 1007.0
06 20.06 С 6 н/о н/о +4.7 -0.5 69 -0 -0 1014.3 1007.8 +4.6 +14.5 22
09 20.06 С 4 н/о н/о +3.7 -0.8 72 -1 -1 1014.4 1008.0
12 20.06 СЗ 4 н/о н/о +4.5 -1.3 66 +1 +1 1015.2 1008.7 +3.2 +14.5
15 20.06 СЗ 5 н/о н/о +6.9 -0.2 61 +3 +3 1014.9 1008.4
18 20.06 СЗ 6 н/о н/о +10.3 -0.1 48 +7 +7 1013.7 1007.3 +3.2 +10.7
21 20.06 СЗ 7 н/о н/о +10.0 -2.5 41 +7 +7 1013.4 1006.9
00 21.06 С 5 н/о н/о +10.3 -1.3 44 +8 +8 1012.3 1005.9 +3.2 +11.9
03 21.06 С 2 н/о н/о +9.0 -1.2 49 +8 +8 1011.8 1005.4
06 21.06 СВ 4 н/о н/о +6.1 -0.3 64 +3 +3 1010.3 1003.9 +3.2 +11.9 19
09 21.06 СВ 4 н/о н/о +4.8 -0.4 69 +1 +1 1010.1 1003.7
12 21.06 СВ 6 н/о н/о +5.9 -0.2 65 +2 +2 1009.8 1003.4 +4.1 +11.9
15 21.06 СВ 5 н/о н/о +7.5 +0.2 60 +4 +4 1009.6 1003.2
18 21.06 С 5 н/о н/о +8.9 -2.0 46 +6 +6 1008.9 1002.5 +4.1 +8.9
21 21.06 С 7 н/о н/о +10.4 -2.3 41 +7 +7 1008.6 1002.2
00 22.06 С 9 н/о н/о +10.0 +0.4 51 +6 +6 1008.7 1002.3 +4.1 +11.6
03 22.06 С 7 н/о н/о +8.0 +0.5 59 +4 +4 1009.8 1003.4
06 22.06 С 8 н/о н/о +4.6 +1.1 78 -1 -1 1010.3 1003.9 +4.0 +11.6 1
09 22.06 С 5 н/о н/о +5.0 +1.8 80 0 0 1010.9 1004.5
12 22.06 С 7 н/о н/о +5.8 +1.6 74 +1 +1 1011.9 1005.5 +4.0 +11.6
15 22.06 С 7 н/о н/о +8.7 +0.7 57 +5 +5 1012.7 1006.3
18 22.06 С 7 н/о н/о +10.2 +2.0 57 +7 +7 1013.3 1006.9 +4.0 +10.8
21 22.06 С 9 н/о н/о +11.9 +0.5 45 +9 +9 1013.7 1007.3
00 23.06 С 7 н/о н/о +11.6 +0.2 45 +9 +9 1014.6 1008.2 +4.6 +12.5
03 23.06 С 4 н/о н/о +9.2 +1.4 58 +7 +7 1015.2 1008.8
06 23.06 С 5 н/о н/о +3.5 -0.2 77 -1 -1 1015.5 1009.0 +3.2 +12.5 21
09 23.06 С 6 н/о н/о +3.2 0.0 80 -3 -3 1015.5 1009.0
12 23.06 С 8 н/о н/о +3.6 +0.3 79 -3 -3 1016.5 1010.0 +2.4 +12.5
15 23.06 С 7 н/о н/о +5.8 -0.4 64 +1 +1 1017.0 1010.5
18 23.06 С 7 н/о н/о +10.1 +0.4 51 +7 +7 1016.9 1010.4 +2.4 +10.7
21 23.06 С 6 н/о н/о +12.7 +0.2 42 +11 +11 1017.1 1010.6
00 24.06 С 6 н/о н/о +13.6 +0.3 40 +12 +12 1017.6 1011.1 +2.4 +14.0
03 24.06 С 5 н/о н/о +11.5 +0.1 45 +9 +9 1017.4 1010.9
06 24.06 С 5 н/о н/о +6.0 +0.4 67 +2 +2 1017.6 1011.1 +2.4 +14.0 17
09 24.06 С 5 н/о н/о +4.3 -0.1 73 -0 -0 1017.4 1010.9
12 24.06 ЮЗ 1 н/о н/о +7.5 +1.4 65 +7 +7 1017.2 1010.8 +3.8 +14.0
15 24.06 Ю 2 н/о н/о +12.3 +2.6 52 +12 +12 1016.2 1009.8
18 24.06 ЮВ 3 н/о н/о +13.6 +1.4 43 +13 +13 1015.2 1008.8 +3.8 +15.7
21 24.06 С 12 н/о н/о +11.4 +5.3 66 +7 +7 1015.9 1009.4
00 25.06 13 н/о н/о +11.6 +2.3 53 1016.9 1010.5 +3.8 +15.7
03 25.06 С 9 н/о н/о +7.8 +1.1 63 +3 +3 1018.1 1011.7
06 25.06 С 5 н/о н/о +6.1 +0.5 67 +2 +2 1018.7 1012.2 +3.8 +15.7 21
09 25.06 С 5 н/о н/о +4.3 +0.5 76 -0 -0 1018.6 1012.1
12 25.06 С 4 н/о н/о +6.6 +1.7 71 +3 +3 1018.6 1012.1 +4.0 +15.7
15 25.06 С 4 н/о н/о +8.1 +1.5 63 +5 +5 1017.9 1011.4
18 25.06 Ю 3 н/о н/о +8.5 +1.8 63 +7 +7 1016.4 1009.9 +4.0 +10.3
21 25.06 Ю 2 н/о н/о +7.2 +1.6 68 +6 +6 1014.7 1008.2
00 26.06 ЮВ 4 н/о н/о +10.1 +4.1 66 +8 +8 1012.7 1006.3 +4.0 +10.6
03 26.06 ЮВ 5 н/о н/о +9.4 +4.5 71 +6 +6 1011.4 1005.0
06 26.06 В 5 н/о н/о +7.6 +3.4 75 +4 +4 1011.4 1005.0 +4.0 +10.6 8
09 26.06 В 4 н/о н/о +8.9 +4.8 75 +6 +6 1011.7 1005.3
12 26.06 СВ 5 н/о н/о +10.0 +5.9 76 +7 +7 1012.7 1006.3 +6.7 +10.6
15 26.06 СВ 5 н/о н/о +13.6 +4.2 53 +12 +12 1013.4 1007.0

 

Местоположение метеостанции Baker Lake Climate (Канада): широта 64.32 долгота -96.00 высота над уровнем моря 51 м.

В архиве по умолчанию представлена погода в Baker Lake Climate за последнюю неделю. Архивные данные за месяц целиком и за предыдущие месяцы, начиная с января 2011 года, Вы можете получить, выбрав интересующий диапазон дат из раскрывающегося списка и нажав кнопку "Ввод!".

Внимание! Время в таблицах - всемирное. Для получения местного времени необходимо прибавить поправку, которая в Baker Lake Climate равна -6 ч.

Смотрите также архив погоды в соседних городах и на ближайших метеорологических станциях:

Погода в Baker Lake Airport (Канада) (4 км)
Погода в Back River MAPS (Канада) (197 км)
Погода в Rankin Inlet (Канада) (255 км)
Погода в Dubawnt Lake (Канада) (305 км)
Погода в Robertson Lake (Канада) (316 км)
Погода в Wager Bay (Канада) (353 км)
Погода в Arviat Climate (Канада) (372 км)
Погода в Arviat (Канада) (372 км)
Погода в Arviat Airport (Канада) (372 км)
Погода в Hanbury River ARS (Канада) (454 км)

Пояснения к столбцам:

Ветер - указаны скорость ветра в м/с - средняя за 10 мин, порывы в срок и между сроками (в фигурных скобках) и направление, откуда дует ветер: С - северный, СВ - северо-восточный, В - восточный, ЮВ - юго-восточный, Ю - южный, ЮЗ - юго-западный, З - западный, СЗ - северо-западный.
Видимость - горизонтальная дальность видимости в метрах или километрах. При видимости от 1 до 10 км при отсутствии осадков обычно наблюдается дымка, при ухудшении видимости до 1 км и менее - туман. В сухую погоду видимость может ухудшаться дымом, пылью или мглою.
Явления - указаны атмосферные явления, наблюдавшиеся в срок или в последний час перед сроком; фигурными скобками обозначены явления, наблюдавшиеся между сроками (за 1-3 часа до срока); квадратными скобками обозначены град или гололедные отложения с указанием их диаметра в мм.
Облачность - указаны через наклонную черту общая и нижняя облачность в баллах и высота нижней границы облаков в метрах; квадратными скобками обозначены формы облаков: Ci - перистые, Cs - перисто-слоистые, Cc - перисто-кучевые, Ac - высококучевые, As - высокослоистые, Sc - слоисто-кучевые, Ns - слоисто-дождевые, Cu - кучевые, Cb - кучево-дождевые. Подробнее классификацию облаков см. в Атласе облаков (PDF).
T - Температура воздуха - температура, измеренная на высоте 2 м над землей.
Td - Температура точки росы - температура, при понижении до которой содержащийся в воздухе водяной пар достигнет насыщения.
f - Относительная влажность воздуха - влажноcть воздуха, измеренная на высоте 2 м над землей.
Te - Эффективная температура - температура, которую ощущает одетый по сезону человек в тени. Характеристика душности погоды. При расчете учитывается влияние влажности воздуха и скорости ветра на теплоощущения человека.
Tes - Эффективная температура на солнце - температура, которую ощущает человек, с поправкой на солнечный нагрев. Характеристика знойности погоды. Зависит от высоты солнца над горизонтом, облачности и скорости ветра. Ночью, в пасмурную погоду, а также при ветре 12 м/с и более поправка равна нулю.
P - Атмосферное давление - приведенное к уровню моря атмосферное давление.
Po - Атмосферное давление - измеренное на уровне метеостанции атмосферное давление.
Tmin - Минимальная температура - минимум температуры воздуха на высоте 2 м над землей.
Tmax - Максимальная температура - максимум температуры воздуха на высоте 2 м над землей.
R - Количество осадков - Количество выпавших осадков за период времени, мм. При наведении курсора мыши на число - период времени, за который выпало указанное количество осадков.
R24 - Количество осадков - Количество выпавших осадков за 24 часа, мм.
S - Снежный покров - Высота снежного покрова, см. При наведении курсора мыши на число - состояние снежного покрова и степень покрытия местности в баллах.